This is the latest recevied weather packets stored in our database for station/object K3JSE-2. If no packets are shown the sender has not sent any weather packets the latest 10 day(s).
| Time | Temp. | Humidity | Pressure | Rain* | Wind** | Luminosity | Snow |
|---|---|---|---|---|---|---|---|
| 1777989755 | 21.67° C | 48% | 1011 hPa | 0 mm | - | - | - |
| 1777989638 | 21.67° C | 49% | 1011.2 hPa | 0 mm | - | - | - |
| 1777989388 | 21.67° C | 51% | 1011.2 hPa | 0 mm | - | - | - |
| 1777989098 | 21.67° C | 48% | 1011.4 hPa | 0 mm | - | - | - |
| 1777989040 | 21.67° C | 48% | 1011.3 hPa | 0 mm | - | - | - |
| 1777988807 | 21.11° C | 54% | 1011.4 hPa | 0 mm | - | - | - |
| 1777988518 | 21.11° C | 51% | 1011.5 hPa | 0 mm | - | - | - |
| 1777988221 | 20.56° C | 53% | 1011.6 hPa | 0 mm | - | - | - |
| 1777987933 | 20° C | 51% | 1011.7 hPa | 0 mm | - | - | - |
| 1777987638 | 19.44° C | 53% | 1011.7 hPa | 0 mm | - | - | - |
| 1777987615 | 19.44° C | 53% | 1011.7 hPa | 0 mm | - | - | - |
| 1777987358 | 19.44° C | 52% | 1011.7 hPa | 0 mm | - | - | - |
| 1777987078 | 18.89° C | 55% | 1011.8 hPa | 0 mm | - | - | - |
| 1777986910 | 18.89° C | 56% | 1011.9 hPa | 0 mm | - | - | - |
| 1777986838 | 18.89° C | 56% | 1011.9 hPa | 0 mm | - | - | - |
| 1777986558 | 18.33° C | 55% | 1011.9 hPa | 0 mm | - | - | - |
| 1777986293 | 18.33° C | 57% | 1011.9 hPa | 0 mm | - | - | - |
| 1777986275 | 18.33° C | 57% | 1011.9 hPa | 0 mm | - | - | - |
| 1777986048 | 17.78° C | 57% | 1011.9 hPa | 0 mm | - | - | - |
| 1777985761 | 17.78° C | 57% | 1011.9 hPa | 0 mm | - | - | - |
| 1777985589 | 17.22° C | 58% | 1011.9 hPa | 0 mm | - | - | - |
| 1777985473 | 17.22° C | 58% | 1011.9 hPa | 0 mm | - | - | - |
| 1777985188 | 17.22° C | 58% | 1011.9 hPa | 0 mm | - | - | - |
| 1777984918 | 17.22° C | 60% | 1011.9 hPa | 0 mm | - | - | - |
| 1777984840 | 17.22° C | 59% | 1011.9 hPa | 0 mm | - | - | - |
* Rain latest hour (hover to see other rain measurements)
** Current wind speed in m/s (hover to see current wind gust speed)